IONOSFERA-M 3

Last updated on Mon Jan 19 2026 00:02:32 GMT+0000 (Coordinated Universal Time)

1 64876U 25155A 26018.59775961 .00000044 00000+0 39521-4 0 9996 2 64876 98.5834 344.4304 0000606 350.7942 9.3224 14.21451275 25159
UTC large
Height (km)
Speed (km/s)
/
Latitude / Longitude
Inclination (degrees)
Orbital Period (minutes)
Azimuth
Elevation
Range (km)
Doppler Factor

Next 0 passes for location: London (51.5072 / 0.1276)

Sorry there are no passes over London.